Preview of NWS' New Version of Forecast
This preview is not operational and should not be used for support decisions.

Regional Weather Roundup (RWR)

Issued by National Weather Service (NWS)

                            
000
ASUS43 KTOP 211759
RWRKS 

WEATHER ROUNDUP FOR KANSAS
NATIONAL WEATHER SERVICE GOODLAND KS
1200 PM CST THU FEB 21 2019

NOTE:  "FAIR" INDICATES FEW OR NO CLOUDS BELOW 12,000 FEET WITH NO
SIGNIFICANT WEATHER AND/OR OBSTRUCTIONS TO VISIBILITY.

KSZ001>006-013>018-027>032-041>047-211900-
NORTHWEST KANSAS
  
CITY           SKY/WX    TMP DP  RH WIND       PRES   REMARKS
GOODLAND       CLOUDY    30  22  72 S10       29.84S WCI  21          
6HR MIN TEMP:  19; 6HR MAX TEMP:  30;                                

HAYS           MOSUNNY   40  28  62 SE18      29.97F WCI  31          
HILL CITY      SUNNY     37  24  59 E14       29.96F WCI  28          
6HR MIN TEMP:  13; 6HR MAX TEMP:  37;                                

RUSSELL        CLOUDY    37  23  56 SE21G30   29.99R WCI  26          
6HR MIN TEMP:  23; 6HR MAX TEMP:  38;                                

$$

KSZ061>065-074>080-084>089-211900-
SOUTHWEST KANSAS
  
CITY           SKY/WX    TMP DP  RH WIND       PRES   REMARKS
DODGE CITY     CLOUDY    38  27  64 SE20      29.91R WCI  28          
6HR MIN TEMP:  27; 6HR MAX TEMP:  38;                                

GARDEN CITY    CLOUDY    39  27  62 S13       29.87F WCI  31          
6HR MIN TEMP:  24; 6HR MAX TEMP:  39;                                

GREAT BEND     CLOUDY    41  29  62 SE23G30   29.96F                  
LIBERAL        SUNNY     40  28  62 SE14G21   29.88S WCI  32          
$$

KSZ066>073-081>083-090>101-211900-
SOUTHEAST KANSAS
  
CITY           SKY/WX    TMP DP  RH WIND       PRES   REMARKS
CHANUTE        CLOUDY    46  23  40 E17G23    30.13F                  
6HR MIN TEMP:  30; 6HR MAX TEMP:  46;                                

COFFEYVILLE    PTSUNNY   45  28  51 E12       30.13R                  
6HR MIN TEMP:  30; 6HR MAX TEMP:  46;                                

HUTCHINSON     CLOUDY    40  24  53 SE15      30.02S WCI  32          
6HR MIN TEMP:  25; 6HR MAX TEMP:  40;                                

MEDICINE LODGE   N/A     37  31  78 SE8       30.01S                  
NEWTON         CLOUDY    42  22  44 SE17G26   30.05F                  
PARSONS        MOSUNNY   46  26  45 VRB7      30.14S                  
6HR MIN TEMP:  32; 6HR MAX TEMP:  46;                                

WICHITA INTL   CLOUDY    45  27  49 SE23G31   30.04F                  
6HR MIN TEMP:  31; 6HR MAX TEMP:  45;                                

WICHITA JABRA  CLOUDY    44  22  41 E18G30    30.05F                  
6HR MIN TEMP:  25; 6HR MAX TEMP:  44;                                

WINFIELD       CLOUDY    41  31  67 E12G20    30.07S                  
6HR MIN TEMP:  31; 6HR MAX TEMP:  41;                                

$$

KSZ007>012-019>026-033>040-048>060-102>105-211900-
NORTHEAST KANSAS
  
CITY           SKY/WX    TMP DP  RH WIND       PRES   REMARKS
CONCORDIA      SUNNY     32  23  69 E12       30.06F WCI  23          
6HR MIN TEMP:   9; 6HR MAX TEMP:  32;                                

EMPORIA        CLOUDY    42  25  50 E14       30.11F                  
6HR MIN TEMP:  20; 6HR MAX TEMP:  42;                                

LAWRENCE       MOSUNNY   37  25  61 E8        30.17F HAZE             
6HR MIN TEMP:  13; 6HR MAX TEMP:  37;                                

MANHATTAN      CLOUDY    35  26  69 E8        30.11F                  
6HR MIN TEMP:  16; 6HR MAX TEMP:  35;                                

OLATHE IND     MOSUNNY   39  26  59 E7        30.17F                  
6HR MIN TEMP:  18; 6HR MAX TEMP:  39;                                

OLATHE EXE     PTSUNNY   37  24  59 E8        30.16F                  
6HR MIN TEMP:  18; 6HR MAX TEMP:  37;                                

SALINA         CLOUDY    41  22  46 SE16      30.05F                  
6HR MIN TEMP:  15; 6HR MAX TEMP:  41;                                

TOPEKA BILLARD MOSUNNY   37  25  61 E9        30.15F                  
6HR MIN TEMP:  18; 6HR MAX TEMP:  37;                                

TOPEKA FORBES  MOSUNNY   39  24  55 E8        30.14F                  
6HR MIN TEMP:  17; 6HR MAX TEMP:  39;                                

$$